Year,Month,Day,Hour,Minute,Value (Times are PST for temperature in C)
2012,04,21,01,11,6.90
2012,04,21,01,12,6.90
2012,04,21,01,13,6.90
2012,04,21,01,14,6.90
2012,04,21,01,15,6.90
2012,04,21,01,16,6.90
2012,04,21,01,17,6.90
2012,04,21,01,18,6.90
2012,04,21,01,19,6.90
2012,04,21,01,20,6.90
2012,04,21,01,21,6.90
2012,04,21,01,22,6.90
2012,04,21,01,23,6.90
2012,04,21,01,24,6.90
2012,04,21,01,25,6.90
2012,04,21,01,26,7.10
2012,04,21,01,27,7.10
2012,04,21,01,28,7.10
2012,04,21,01,29,7.10
2012,04,21,01,30,7.10
2012,04,21,01,31,7.10
2012,04,21,01,32,7.10
2012,04,21,01,33,7.10
2012,04,21,01,34,7.10
2012,04,21,01,35,7.10
2012,04,21,01,36,7.10
2012,04,21,01,37,7.10
2012,04,21,01,38,7.10
2012,04,21,01,39,7.10
2012,04,21,01,40,7.10
2012,04,21,01,41,7.10
2012,04,21,01,42,7.10
2012,04,21,01,43,7.10
2012,04,21,01,44,7.10
2012,04,21,01,45,7.10
2012,04,21,01,46,7.10
2012,04,21,01,47,7.10
2012,04,21,01,48,7.10
2012,04,21,01,49,7.10
2012,04,21,01,50,7.10
2012,04,21,01,51,7.10
2012,04,21,01,52,7.10
2012,04,21,01,53,7.10
2012,04,21,01,54,7.10
2012,04,21,01,55,7.10
2012,04,21,01,56,6.90
2012,04,21,01,57,6.90
2012,04,21,01,58,6.90
2012,04,21,01,59,6.90
2012,04,21,02,00,6.90
2012,04,21,02,01,6.90
2012,04,21,02,02,6.90
2012,04,21,02,03,6.90
2012,04,21,02,04,6.90
2012,04,21,02,05,6.90
2012,04,21,02,06,6.90
2012,04,21,02,07,6.90
2012,04,21,02,08,6.90
2012,04,21,02,09,6.90
2012,04,21,02,10,6.90
2012,04,21,02,11,6.90
2012,04,21,02,12,6.90
2012,04,21,02,13,6.90
2012,04,21,02,14,6.90
2012,04,21,02,15,6.90
2012,04,21,02,16,6.90
2012,04,21,02,17,6.90
2012,04,21,02,18,6.90
2012,04,21,02,19,6.90
2012,04,21,02,20,6.90
2012,04,21,02,21,6.90
2012,04,21,02,22,6.90
2012,04,21,02,23,6.90
2012,04,21,02,24,6.90
2012,04,21,02,25,6.90
2012,04,21,02,26,6.70
2012,04,21,02,27,6.70
2012,04,21,02,28,6.70
2012,04,21,02,29,6.70
2012,04,21,02,30,6.70
2012,04,21,02,31,6.70
2012,04,21,02,32,6.70
2012,04,21,02,33,6.70
2012,04,21,02,34,6.70
2012,04,21,02,35,6.70
2012,04,21,02,36,6.70
2012,04,21,02,37,6.70
2012,04,21,02,38,6.70
2012,04,21,02,39,6.70
2012,04,21,02,40,6.70
2012,04,21,02,41,6.60
2012,04,21,02,42,6.60
2012,04,21,02,43,6.60
2012,04,21,02,44,6.60
2012,04,21,02,45,6.60
2012,04,21,02,46,6.60
2012,04,21,02,47,6.60
2012,04,21,02,48,6.60
2012,04,21,02,49,6.60
2012,04,21,02,50,6.60
2012,04,21,02,51,6.60
2012,04,21,02,52,6.60
2012,04,21,02,53,6.60
2012,04,21,02,54,6.60
2012,04,21,02,55,6.60
2012,04,21,02,56,6.80
2012,04,21,02,57,6.80
2012,04,21,02,58,6.80
2012,04,21,02,59,6.80
2012,04,21,03,00,6.80
2012,04,21,03,01,6.80
2012,04,21,03,02,6.80
2012,04,21,03,03,6.80
2012,04,21,03,04,6.80
2012,04,21,03,05,6.80
2012,04,21,03,06,6.80
2012,04,21,03,07,6.80
2012,04,21,03,08,6.80
2012,04,21,03,09,6.80
2012,04,21,03,10,6.80
2012,04,21,03,11,6.80
2012,04,21,03,12,6.80
2012,04,21,03,13,6.80
2012,04,21,03,14,6.80
2012,04,21,03,15,6.80
2012,04,21,03,16,6.80
2012,04,21,03,17,6.80
2012,04,21,03,18,6.80
2012,04,21,03,19,6.80
2012,04,21,03,20,6.80
2012,04,21,03,21,6.80
2012,04,21,03,22,6.80
2012,04,21,03,23,6.80
2012,04,21,03,24,6.80
2012,04,21,03,25,6.80
2012,04,21,03,26,6.80
2012,04,21,03,27,6.80
2012,04,21,03,28,6.80
2012,04,21,03,29,6.80
2012,04,21,03,30,6.80
2012,04,21,03,31,6.80
2012,04,21,03,32,6.80
2012,04,21,03,33,6.80
2012,04,21,03,34,6.80
2012,04,21,03,35,6.80
2012,04,21,03,36,6.80
2012,04,21,03,37,6.80
2012,04,21,03,38,6.80
2012,04,21,03,39,6.80
2012,04,21,03,40,6.80
2012,04,21,03,41,6.80
2012,04,21,03,42,6.80
2012,04,21,03,43,6.80
2012,04,21,03,44,6.80
2012,04,21,03,45,6.80
2012,04,21,03,46,6.80
2012,04,21,03,47,6.80
2012,04,21,03,48,6.80
2012,04,21,03,49,6.80
2012,04,21,03,50,6.80
2012,04,21,03,51,6.80
2012,04,21,03,52,6.80
2012,04,21,03,53,6.80
2012,04,21,03,54,6.80
2012,04,21,03,55,6.80
2012,04,21,03,56,6.80
2012,04,21,03,57,6.80
2012,04,21,03,58,6.80
2012,04,21,03,59,6.80
2012,04,21,04,00,6.80
2012,04,21,04,01,6.80
2012,04,21,04,02,6.80
2012,04,21,04,03,6.80
2012,04,21,04,04,6.80
2012,04,21,04,05,6.80
2012,04,21,04,06,6.80
2012,04,21,04,07,6.80
2012,04,21,04,08,6.80
2012,04,21,04,09,6.80
2012,04,21,04,10,6.80
2012,04,21,04,11,6.60
2012,04,21,04,12,6.60
2012,04,21,04,13,6.60
2012,04,21,04,14,6.60
2012,04,21,04,15,6.60
2012,04,21,04,16,6.60
2012,04,21,04,17,6.60
2012,04,21,04,18,6.60
2012,04,21,04,19,6.60
2012,04,21,04,20,6.60
2012,04,21,04,21,6.60
2012,04,21,04,22,6.60
2012,04,21,04,23,6.60
2012,04,21,04,24,6.60
2012,04,21,04,25,6.60
2012,04,21,04,26,6.30
2012,04,21,04,27,6.30
2012,04,21,04,28,6.30
2012,04,21,04,29,6.30
2012,04,21,04,30,6.30
2012,04,21,04,31,6.30
2012,04,21,04,32,6.30
2012,04,21,04,33,6.30
2012,04,21,04,34,6.30
2012,04,21,04,35,6.30
2012,04,21,04,36,6.30
2012,04,21,04,37,6.30
2012,04,21,04,38,6.30
2012,04,21,04,39,6.30
2012,04,21,04,40,6.30
2012,04,21,04,41,6.10
2012,04,21,04,42,6.10
2012,04,21,04,43,6.10
2012,04,21,04,44,6.10
2012,04,21,04,45,6.10
2012,04,21,04,46,6.10
2012,04,21,04,47,6.10
2012,04,21,04,48,6.10
2012,04,21,04,49,6.10
2012,04,21,04,50,6.10
2012,04,21,04,51,6.10
2012,04,21,04,52,6.10
2012,04,21,04,53,6.10
2012,04,21,04,54,6.10
2012,04,21,04,55,6.10
2012,04,21,04,56,6.10
2012,04,21,04,57,6.10
2012,04,21,04,58,6.10
2012,04,21,04,59,6.10
2012,04,21,05,00,6.10
2012,04,21,05,01,6.10
2012,04,21,05,02,6.10
2012,04,21,05,03,6.10
2012,04,21,05,04,6.10
2012,04,21,05,05,6.10
2012,04,21,05,06,6.10
2012,04,21,05,07,6.10
2012,04,21,05,08,6.10
2012,04,21,05,09,6.10
2012,04,21,05,10,6.10
2012,04,21,05,11,5.90
2012,04,21,05,12,5.90
2012,04,21,05,13,5.90
2012,04,21,05,14,5.90
2012,04,21,05,15,5.90
2012,04,21,05,16,5.90
2012,04,21,05,17,5.90
2012,04,21,05,18,5.90
2012,04,21,05,19,5.90
2012,04,21,05,20,5.90
2012,04,21,05,21,5.90
2012,04,21,05,22,5.90
2012,04,21,05,23,5.90
2012,04,21,05,24,5.90
2012,04,21,05,25,5.90
2012,04,21,05,26,5.90
2012,04,21,05,27,5.90
2012,04,21,05,28,5.90
2012,04,21,05,29,5.90
2012,04,21,05,30,5.90
2012,04,21,05,31,5.90
2012,04,21,05,32,5.90
2012,04,21,05,33,5.90
2012,04,21,05,34,5.90
2012,04,21,05,35,5.90
2012,04,21,05,36,5.90
2012,04,21,05,37,5.90
2012,04,21,05,38,5.90
2012,04,21,05,39,5.90
2012,04,21,05,40,5.90
2012,04,21,05,41,6.00
2012,04,21,05,42,6.00
2012,04,21,05,43,6.00
2012,04,21,05,44,6.00
2012,04,21,05,45,6.00
2012,04,21,05,46,6.00
2012,04,21,05,47,6.00
2012,04,21,05,48,6.00
2012,04,21,05,49,6.00
2012,04,21,05,50,6.00
2012,04,21,05,51,6.00
2012,04,21,05,52,6.00
2012,04,21,05,53,6.00
2012,04,21,05,54,6.00
2012,04,21,05,55,6.00
2012,04,21,05,56,6.20
2012,04,21,05,57,6.20
2012,04,21,05,58,6.20
2012,04,21,05,59,6.20
2012,04,21,06,00,6.20
2012,04,21,06,01,6.20
2012,04,21,06,02,6.20
2012,04,21,06,03,6.20
2012,04,21,06,04,6.20
2012,04,21,06,05,6.20
2012,04,21,06,06,6.20
2012,04,21,06,07,6.20
2012,04,21,06,08,6.20
2012,04,21,06,09,6.20
2012,04,21,06,10,6.20
2012,04,21,06,11,6.20
2012,04,21,06,12,6.20
2012,04,21,06,13,6.20
2012,04,21,06,14,6.20
2012,04,21,06,15,6.20
2012,04,21,06,16,6.20
2012,04,21,06,17,6.20
2012,04,21,06,18,6.20
2012,04,21,06,19,6.20
2012,04,21,06,20,6.20
2012,04,21,06,21,6.20
2012,04,21,06,22,6.20
2012,04,21,06,23,6.20
2012,04,21,06,24,6.20
2012,04,21,06,25,6.20
2012,04,21,06,26,6.20
2012,04,21,06,27,6.20
2012,04,21,06,28,6.20
2012,04,21,06,29,6.20
2012,04,21,06,30,6.20
2012,04,21,06,31,6.20
2012,04,21,06,32,6.20
2012,04,21,06,33,6.20
2012,04,21,06,34,6.20
2012,04,21,06,35,6.20
2012,04,21,06,36,6.20
2012,04,21,06,37,6.20
2012,04,21,06,38,6.20
2012,04,21,06,39,6.20
2012,04,21,06,40,6.20
2012,04,21,06,41,6.10
2012,04,21,06,42,6.10
2012,04,21,06,43,6.10
2012,04,21,06,44,6.10
2012,04,21,06,45,6.10
2012,04,21,06,46,6.10
2012,04,21,06,47,6.10
2012,04,21,06,48,6.10
2012,04,21,06,49,6.10
2012,04,21,06,50,6.10
2012,04,21,06,51,6.10
2012,04,21,06,52,6.10
2012,04,21,06,53,6.10
2012,04,21,06,54,6.10
2012,04,21,06,55,6.10
2012,04,21,06,56,6.20
2012,04,21,06,57,6.20
2012,04,21,06,58,6.20
2012,04,21,06,59,6.20
2012,04,21,07,00,6.20
2012,04,21,07,01,6.20
2012,04,21,07,02,6.20
2012,04,21,07,03,6.20
2012,04,21,07,04,6.20
2012,04,21,07,05,6.20
2012,04,21,07,06,6.20
2012,04,21,07,07,6.20
2012,04,21,07,08,6.20
2012,04,21,07,09,6.20
2012,04,21,07,10,6.20
2012,04,21,07,11,6.10
2012,04,21,07,12,6.10
2012,04,21,07,13,6.10
2012,04,21,07,14,6.10
2012,04,21,07,15,6.10
2012,04,21,07,16,6.10
2012,04,21,07,17,6.10
2012,04,21,07,18,6.10
2012,04,21,07,19,6.10
2012,04,21,07,20,6.10
2012,04,21,07,21,6.10
2012,04,21,07,22,6.10
2012,04,21,07,23,6.10
2012,04,21,07,24,6.10
2012,04,21,07,25,6.10
2012,04,21,07,26,6.40
2012,04,21,07,27,6.40
2012,04,21,07,28,6.40
2012,04,21,07,29,6.40
2012,04,21,07,30,6.40
2012,04,21,07,31,6.40
2012,04,21,07,32,6.40
2012,04,21,07,33,6.40
2012,04,21,07,34,6.40
2012,04,21,07,35,6.40
2012,04,21,07,36,6.40
2012,04,21,07,37,6.40
2012,04,21,07,38,6.40
2012,04,21,07,39,6.40
2012,04,21,07,40,6.40
2012,04,21,07,41,6.60
2012,04,21,07,42,6.60
2012,04,21,07,43,6.60
2012,04,21,07,44,6.60
2012,04,21,07,45,6.60
2012,04,21,07,46,6.60
2012,04,21,07,47,6.60
2012,04,21,07,48,6.60
2012,04,21,07,49,6.60
2012,04,21,07,50,6.60
2012,04,21,07,51,6.60
2012,04,21,07,52,6.60
2012,04,21,07,53,6.60
2012,04,21,07,54,6.60
2012,04,21,07,55,6.60
2012,04,21,07,56,6.80
2012,04,21,07,57,6.80
2012,04,21,07,58,6.80
2012,04,21,07,59,6.80
2012,04,21,08,00,6.80
2012,04,21,08,01,6.80
2012,04,21,08,02,6.80
2012,04,21,08,03,6.80
2012,04,21,08,04,6.80
2012,04,21,08,05,6.80
2012,04,21,08,06,6.80
2012,04,21,08,07,6.80
2012,04,21,08,08,6.80
2012,04,21,08,09,6.80
2012,04,21,08,10,6.80
2012,04,21,08,11,7.30
2012,04,21,08,12,7.30
2012,04,21,08,13,7.30
2012,04,21,08,14,7.30
2012,04,21,08,15,7.30
2012,04,21,08,16,7.30
2012,04,21,08,17,7.30
2012,04,21,08,18,7.30
2012,04,21,08,19,7.30
2012,04,21,08,20,7.30
2012,04,21,08,21,7.30
2012,04,21,08,22,7.30
2012,04,21,08,23,7.30
2012,04,21,08,24,7.30
2012,04,21,08,25,7.30
2012,04,21,08,26,7.70
2012,04,21,08,27,7.70
2012,04,21,08,28,7.70
2012,04,21,08,29,7.70
2012,04,21,08,30,7.70
2012,04,21,08,31,7.70
2012,04,21,08,32,7.70
2012,04,21,08,33,7.70
2012,04,21,08,34,7.70
2012,04,21,08,35,7.70
2012,04,21,08,36,7.70
2012,04,21,08,37,7.70
2012,04,21,08,38,7.70
2012,04,21,08,39,7.70
2012,04,21,08,40,7.70
2012,04,21,08,41,7.90
2012,04,21,08,42,7.90
2012,04,21,08,43,7.90
2012,04,21,08,44,7.90
2012,04,21,08,45,7.90
2012,04,21,08,46,7.90
2012,04,21,08,47,7.90
2012,04,21,08,48,7.90
2012,04,21,08,49,7.90
2012,04,21,08,50,7.90
2012,04,21,08,51,7.90
2012,04,21,08,52,7.90
2012,04,21,08,53,7.90
2012,04,21,08,54,7.90
2012,04,21,08,55,7.90
2012,04,21,08,56,8.10
2012,04,21,08,57,8.10
2012,04,21,08,58,8.10
2012,04,21,08,59,8.10
2012,04,21,09,00,8.10
2012,04,21,09,01,8.10
2012,04,21,09,02,8.10
2012,04,21,09,03,8.10
2012,04,21,09,04,8.10
2012,04,21,09,05,8.10
2012,04,21,09,06,8.10
2012,04,21,09,07,8.10
2012,04,21,09,08,8.10
2012,04,21,09,09,8.10
2012,04,21,09,10,8.10
2012,04,21,09,11,8.30
2012,04,21,09,12,8.30
2012,04,21,09,13,8.30
2012,04,21,09,14,8.30
2012,04,21,09,15,8.30
2012,04,21,09,16,8.30
2012,04,21,09,17,8.30
2012,04,21,09,18,8.30
2012,04,21,09,19,8.30
2012,04,21,09,20,8.30
2012,04,21,09,21,8.30
2012,04,21,09,22,8.30
2012,04,21,09,23,8.30
2012,04,21,09,24,8.30
2012,04,21,09,25,8.30
2012,04,21,09,26,8.70
2012,04,21,09,27,8.70
2012,04,21,09,28,8.70
2012,04,21,09,29,8.70
2012,04,21,09,30,8.70
2012,04,21,09,31,8.70
2012,04,21,09,32,8.70
2012,04,21,09,33,8.70
2012,04,21,09,34,8.70
2012,04,21,09,35,8.70
2012,04,21,09,36,8.70
2012,04,21,09,37,8.70
2012,04,21,09,38,8.70
2012,04,21,09,39,8.70
2012,04,21,09,40,8.70
2012,04,21,09,41,8.80
2012,04,21,09,42,8.80
2012,04,21,09,43,8.80
2012,04,21,09,44,8.80
2012,04,21,09,45,8.80
2012,04,21,09,46,8.80
2012,04,21,09,47,8.80
2012,04,21,09,48,8.80
2012,04,21,09,49,8.80
2012,04,21,09,50,8.80
2012,04,21,09,51,8.80
2012,04,21,09,52,8.80
2012,04,21,09,53,8.80
2012,04,21,09,54,8.80
2012,04,21,09,55,8.80
2012,04,21,09,56,9.30
2012,04,21,09,57,9.30
2012,04,21,09,58,9.30
2012,04,21,09,59,9.30
2012,04,21,10,00,9.30
2012,04,21,10,01,9.30
2012,04,21,10,02,9.30
2012,04,21,10,03,9.30
2012,04,21,10,04,9.30
2012,04,21,10,05,9.30
2012,04,21,10,06,9.30
2012,04,21,10,07,9.30
2012,04,21,10,08,9.30
2012,04,21,10,09,9.30
2012,04,21,10,10,9.30
2012,04,21,10,11,9.60
2012,04,21,10,12,9.60
2012,04,21,10,13,9.60
2012,04,21,10,14,9.60
2012,04,21,10,15,9.60
2012,04,21,10,16,9.60
2012,04,21,10,17,9.60
2012,04,21,10,18,9.60
2012,04,21,10,19,9.60
2012,04,21,10,20,9.60
2012,04,21,10,21,9.60
2012,04,21,10,22,9.60
2012,04,21,10,23,9.60
2012,04,21,10,24,9.60
2012,04,21,10,25,9.60
2012,04,21,10,26,9.70
2012,04,21,10,27,9.70
2012,04,21,10,28,9.70
2012,04,21,10,29,9.70
2012,04,21,10,30,9.70
2012,04,21,10,31,9.70
2012,04,21,10,32,9.70
2012,04,21,10,33,9.70
2012,04,21,10,34,9.70
2012,04,21,10,35,9.70
2012,04,21,10,36,9.70
2012,04,21,10,37,9.70
2012,04,21,10,38,9.70
2012,04,21,10,39,9.70
2012,04,21,10,40,9.70
2012,04,21,10,41,9.80
2012,04,21,10,42,9.80
2012,04,21,10,43,9.80
2012,04,21,10,44,9.80
2012,04,21,10,45,9.80
2012,04,21,10,46,9.80
2012,04,21,10,47,9.80
2012,04,21,10,48,9.80
2012,04,21,10,49,9.80
2012,04,21,10,50,9.80
2012,04,21,10,51,9.80
2012,04,21,10,52,9.80
2012,04,21,10,53,9.80
2012,04,21,10,54,9.80
2012,04,21,10,55,9.80
2012,04,21,10,56,9.80
2012,04,21,10,57,9.80
2012,04,21,10,58,9.80
2012,04,21,10,59,9.80
2012,04,21,11,00,9.80
2012,04,21,11,01,9.80
2012,04,21,11,02,9.80
2012,04,21,11,03,9.80
2012,04,21,11,04,9.80
2012,04,21,11,05,9.80
2012,04,21,11,06,9.80
2012,04,21,11,07,9.80
2012,04,21,11,08,9.80
2012,04,21,11,09,9.80
2012,04,21,11,10,9.80
2012,04,21,11,11,9.30
2012,04,21,11,12,9.30
2012,04,21,11,13,9.30
2012,04,21,11,14,9.30
2012,04,21,11,15,9.30
2012,04,21,11,16,9.30
2012,04,21,11,17,9.30
2012,04,21,11,18,9.30
2012,04,21,11,19,9.30
2012,04,21,11,20,9.30
2012,04,21,11,21,9.30
2012,04,21,11,22,9.30
2012,04,21,11,23,9.30
2012,04,21,11,24,9.30
2012,04,21,11,25,9.30
2012,04,21,11,26,9.30
2012,04,21,11,27,9.30
2012,04,21,11,28,9.30
2012,04,21,11,29,9.30
2012,04,21,11,30,9.30
2012,04,21,11,31,9.30
2012,04,21,11,32,9.30
2012,04,21,11,33,9.30
2012,04,21,11,34,9.30
2012,04,21,11,35,9.30
2012,04,21,11,36,9.30
2012,04,21,11,37,9.30
2012,04,21,11,38,9.30
2012,04,21,11,39,9.30
2012,04,21,11,40,9.30
2012,04,21,11,41,9.60
2012,04,21,11,42,9.60
2012,04,21,11,43,9.60
2012,04,21,11,44,9.60
2012,04,21,11,45,9.60
2012,04,21,11,46,9.60
2012,04,21,11,47,9.60
2012,04,21,11,48,9.60
2012,04,21,11,49,9.60
2012,04,21,11,50,9.60
2012,04,21,11,51,9.60
2012,04,21,11,52,9.60
2012,04,21,11,53,9.60
2012,04,21,11,54,9.60
2012,04,21,11,55,9.60
2012,04,21,11,56,9.40
2012,04,21,11,57,9.40
2012,04,21,11,58,9.40
2012,04,21,11,59,9.40
2012,04,21,12,00,9.40
2012,04,21,12,01,9.40
2012,04,21,12,02,9.40
2012,04,21,12,03,9.40
2012,04,21,12,04,9.40
2012,04,21,12,05,9.40
2012,04,21,12,06,9.40
2012,04,21,12,07,9.40
2012,04,21,12,08,9.40
2012,04,21,12,09,9.40
2012,04,21,12,10,9.40
2012,04,21,12,11,9.40
2012,04,21,12,12,9.40
2012,04,21,12,13,9.40
2012,04,21,12,14,9.40
2012,04,21,12,15,9.40
2012,04,21,12,16,9.40
2012,04,21,12,17,9.40
2012,04,21,12,18,9.40
2012,04,21,12,19,9.40
2012,04,21,12,20,9.40
2012,04,21,12,21,9.40
2012,04,21,12,22,9.40
2012,04,21,12,23,9.40
2012,04,21,12,24,9.40
2012,04,21,12,25,9.40
2012,04,21,12,26,9.50
2012,04,21,12,27,9.50
2012,04,21,12,28,9.50
2012,04,21,12,29,9.50
2012,04,21,12,30,9.50
2012,04,21,12,31,9.50
2012,04,21,12,32,9.50
2012,04,21,12,33,9.50
2012,04,21,12,34,9.50
2012,04,21,12,35,9.50
2012,04,21,12,36,9.50
2012,04,21,12,37,9.50
2012,04,21,12,38,9.50
2012,04,21,12,39,9.50
2012,04,21,12,40,9.50
2012,04,21,12,41,9.90
2012,04,21,12,42,9.90
2012,04,21,12,43,9.90
2012,04,21,12,44,9.90
2012,04,21,12,45,9.90
2012,04,21,12,46,9.90
2012,04,21,12,47,9.90
2012,04,21,12,48,9.90
2012,04,21,12,49,9.90
2012,04,21,12,50,9.90
2012,04,21,12,51,9.90
2012,04,21,12,52,9.90
2012,04,21,12,53,9.90
2012,04,21,12,54,9.90
2012,04,21,12,55,9.90
2012,04,21,12,56,10.10
2012,04,21,12,57,10.10
2012,04,21,12,58,10.10
2012,04,21,12,59,10.10
2012,04,21,13,00,10.10
2012,04,21,13,01,10.10
2012,04,21,13,02,10.10
2012,04,21,13,03,10.10
2012,04,21,13,04,10.10
2012,04,21,13,05,10.10
2012,04,21,13,06,10.10
2012,04,21,13,07,10.10
2012,04,21,13,08,10.10
2012,04,21,13,09,10.10
2012,04,21,13,10,10.10
2012,04,21,13,11,10.20
2012,04,21,13,12,10.20
2012,04,21,13,13,10.20
2012,04,21,13,14,10.20
2012,04,21,13,15,10.20
2012,04,21,13,16,10.20
2012,04,21,13,17,10.20
2012,04,21,13,18,10.20
2012,04,21,13,19,10.20
2012,04,21,13,20,10.20
2012,04,21,13,21,10.20
2012,04,21,13,22,10.20
2012,04,21,13,23,10.20
2012,04,21,13,24,10.20
2012,04,21,13,25,10.20
2012,04,21,13,26,10.40
2012,04,21,13,27,10.40
2012,04,21,13,28,10.40
2012,04,21,13,29,10.40
2012,04,21,13,30,10.40
2012,04,21,13,31,10.40
2012,04,21,13,32,10.40
2012,04,21,13,33,10.40
2012,04,21,13,34,10.40
2012,04,21,13,35,10.40
2012,04,21,13,36,10.40
2012,04,21,13,37,10.40
2012,04,21,13,38,10.40
2012,04,21,13,39,10.40
2012,04,21,13,40,10.40
2012,04,21,13,41,10.70
2012,04,21,13,42,10.70
2012,04,21,13,43,10.70
2012,04,21,13,44,10.70
2012,04,21,13,45,10.70
2012,04,21,13,46,10.70
2012,04,21,13,47,10.70
2012,04,21,13,48,10.70
2012,04,21,13,49,10.70
2012,04,21,13,50,10.70
2012,04,21,13,51,10.70
2012,04,21,13,52,10.70
2012,04,21,13,53,10.70
2012,04,21,13,54,10.70
2012,04,21,13,55,10.70
2012,04,21,13,56,10.70
2012,04,21,13,57,10.70
2012,04,21,13,58,10.70
2012,04,21,13,59,10.70
2012,04,21,14,00,10.70
2012,04,21,14,01,10.70
2012,04,21,14,02,10.70
2012,04,21,14,03,10.70
2012,04,21,14,04,10.70
2012,04,21,14,05,10.70
2012,04,21,14,06,10.70
2012,04,21,14,07,10.70
2012,04,21,14,08,10.70
2012,04,21,14,09,10.70
2012,04,21,14,10,10.70
2012,04,21,14,11,10.80
2012,04,21,14,12,10.80
2012,04,21,14,13,10.80
2012,04,21,14,14,10.80
2012,04,21,14,15,10.80
2012,04,21,14,16,10.80
2012,04,21,14,17,10.80
2012,04,21,14,18,10.80
2012,04,21,14,19,10.80
2012,04,21,14,20,10.80
2012,04,21,14,21,10.80
2012,04,21,14,22,10.80
2012,04,21,14,23,10.80
2012,04,21,14,24,10.80
2012,04,21,14,25,10.80
2012,04,21,14,26,10.70
2012,04,21,14,27,10.70
2012,04,21,14,28,10.70
2012,04,21,14,29,10.70
2012,04,21,14,30,10.70
2012,04,21,14,31,10.70
2012,04,21,14,32,10.70
2012,04,21,14,33,10.70
2012,04,21,14,34,10.70
2012,04,21,14,35,10.70
2012,04,21,14,36,10.70
2012,04,21,14,37,10.70
2012,04,21,14,38,10.70
2012,04,21,14,39,10.70
2012,04,21,14,40,10.70
2012,04,21,14,41,10.90
2012,04,21,14,42,10.90
2012,04,21,14,43,10.90
2012,04,21,14,44,10.90
2012,04,21,14,45,10.90
2012,04,21,14,46,10.90
2012,04,21,14,47,10.90
2012,04,21,14,48,10.90
2012,04,21,14,49,10.90
2012,04,21,14,50,10.90
2012,04,21,14,51,10.90
2012,04,21,14,52,10.90
2012,04,21,14,53,10.90
2012,04,21,14,54,10.90
2012,04,21,14,55,10.90
2012,04,21,14,56,10.80
2012,04,21,14,57,10.80
2012,04,21,14,58,10.80
2012,04,21,14,59,10.80
2012,04,21,15,00,10.80
2012,04,21,15,01,10.80
2012,04,21,15,02,10.80
2012,04,21,15,03,10.80
2012,04,21,15,04,10.80
2012,04,21,15,05,10.80
2012,04,21,15,06,10.80
2012,04,21,15,07,10.80
2012,04,21,15,08,10.80
2012,04,21,15,09,10.80
2012,04,21,15,10,10.80
2012,04,21,15,11,11.20
2012,04,21,15,12,11.20
2012,04,21,15,13,11.20
2012,04,21,15,14,11.20
2012,04,21,15,15,11.20
2012,04,21,15,16,11.20
2012,04,21,15,17,11.20
2012,04,21,15,18,11.20
2012,04,21,15,19,11.20
2012,04,21,15,20,11.20
2012,04,21,15,21,11.20
2012,04,21,15,22,11.20
2012,04,21,15,23,11.20
2012,04,21,15,24,11.20
2012,04,21,15,25,11.20
2012,04,21,15,26,10.90
2012,04,21,15,27,10.90
2012,04,21,15,28,10.90
2012,04,21,15,29,10.90
2012,04,21,15,30,10.90
2012,04,21,15,31,10.90
2012,04,21,15,32,10.90
2012,04,21,15,33,10.90
2012,04,21,15,34,10.90
2012,04,21,15,35,10.90
2012,04,21,15,36,10.90
2012,04,21,15,37,10.90
2012,04,21,15,38,10.90
2012,04,21,15,39,10.90
2012,04,21,15,40,10.90
2012,04,21,15,41,10.90
2012,04,21,15,42,10.90
2012,04,21,15,43,10.90
2012,04,21,15,44,10.90
2012,04,21,15,45,10.90
2012,04,21,15,46,10.90
2012,04,21,15,47,10.90
2012,04,21,15,48,10.90
2012,04,21,15,49,10.90
2012,04,21,15,50,10.90
2012,04,21,15,51,10.90
2012,04,21,15,52,10.90
2012,04,21,15,53,10.90
2012,04,21,15,54,10.90
2012,04,21,15,55,10.90
2012,04,21,15,56,10.60
2012,04,21,15,57,10.60
2012,04,21,15,58,10.60
2012,04,21,15,59,10.60
2012,04,21,16,00,10.60
2012,04,21,16,01,10.60
2012,04,21,16,02,10.60
2012,04,21,16,03,10.60
2012,04,21,16,04,10.60
2012,04,21,16,05,10.60
2012,04,21,16,06,10.60
2012,04,21,16,07,10.60
2012,04,21,16,08,10.60
2012,04,21,16,09,10.60
2012,04,21,16,10,10.60
2012,04,21,16,11,11.10
2012,04,21,16,12,11.10
2012,04,21,16,13,11.10
2012,04,21,16,14,11.10
2012,04,21,16,15,11.10
2012,04,21,16,16,11.10
2012,04,21,16,17,11.10
2012,04,21,16,18,11.10
2012,04,21,16,19,11.10
2012,04,21,16,20,11.10
2012,04,21,16,21,11.10
2012,04,21,16,22,11.10
2012,04,21,16,23,11.10
2012,04,21,16,24,11.10
2012,04,21,16,25,11.10
2012,04,21,16,26,10.90
2012,04,21,16,27,10.90
2012,04,21,16,28,10.90
2012,04,21,16,29,10.90
2012,04,21,16,30,10.90
2012,04,21,16,31,10.90
2012,04,21,16,32,10.90
2012,04,21,16,33,10.90
2012,04,21,16,34,10.90
2012,04,21,16,35,10.90
2012,04,21,16,36,10.90
2012,04,21,16,37,10.90
2012,04,21,16,38,10.90
2012,04,21,16,39,10.90
2012,04,21,16,40,10.90
2012,04,21,16,41,10.80
2012,04,21,16,42,10.80
2012,04,21,16,43,10.80
2012,04,21,16,44,10.80
2012,04,21,16,45,10.80
2012,04,21,16,46,10.80
2012,04,21,16,47,10.80
2012,04,21,16,48,10.80
2012,04,21,16,49,10.80
2012,04,21,16,50,10.80
2012,04,21,16,51,10.80
2012,04,21,16,52,10.80
2012,04,21,16,53,10.80
2012,04,21,16,54,10.80
2012,04,21,16,55,10.80
2012,04,21,16,56,10.90
2012,04,21,16,57,10.90
2012,04,21,16,58,10.90
2012,04,21,16,59,10.90
2012,04,21,17,00,10.90
2012,04,21,17,01,10.90
2012,04,21,17,02,10.90
2012,04,21,17,03,10.90
2012,04,21,17,04,10.90
2012,04,21,17,05,10.90
2012,04,21,17,06,10.90
2012,04,21,17,07,10.90
2012,04,21,17,08,10.90
2012,04,21,17,09,10.90
2012,04,21,17,10,10.90
2012,04,21,17,11,10.60
2012,04,21,17,12,10.60
2012,04,21,17,13,10.60
2012,04,21,17,14,10.60
2012,04,21,17,15,10.60
2012,04,21,17,16,10.60
2012,04,21,17,17,10.60
2012,04,21,17,18,10.60
2012,04,21,17,19,10.60
2012,04,21,17,20,10.60
2012,04,21,17,21,10.60
2012,04,21,17,22,10.60
2012,04,21,17,23,10.60
2012,04,21,17,24,10.60
2012,04,21,17,25,10.60
2012,04,21,17,26,10.80
2012,04,21,17,27,10.80
2012,04,21,17,28,10.80
2012,04,21,17,29,10.80
2012,04,21,17,30,10.80
2012,04,21,17,31,10.80
2012,04,21,17,32,10.80
2012,04,21,17,33,10.80
2012,04,21,17,34,10.80
2012,04,21,17,35,10.80
2012,04,21,17,36,10.80
2012,04,21,17,37,10.80
2012,04,21,17,38,10.80
2012,04,21,17,39,10.80
2012,04,21,17,40,10.80
2012,04,21,17,41,10.80
2012,04,21,17,42,10.80
2012,04,21,17,43,10.80
2012,04,21,17,44,10.80
2012,04,21,17,45,10.80
2012,04,21,17,46,10.80
2012,04,21,17,47,10.80
2012,04,21,17,48,10.80
2012,04,21,17,49,10.80
2012,04,21,17,50,10.80
2012,04,21,17,51,10.80
2012,04,21,17,52,10.80
2012,04,21,17,53,10.80
2012,04,21,17,54,10.80
2012,04,21,17,55,10.80
2012,04,21,17,56,10.20
2012,04,21,17,57,10.20
2012,04,21,17,58,10.20
2012,04,21,17,59,10.20
2012,04,21,18,00,10.20
2012,04,21,18,01,10.20
2012,04,21,18,02,10.20
2012,04,21,18,03,10.20
2012,04,21,18,04,10.20
2012,04,21,18,05,10.20
2012,04,21,18,06,10.20
2012,04,21,18,07,10.20
2012,04,21,18,08,10.20
2012,04,21,18,09,10.20
2012,04,21,18,10,10.20
2012,04,21,18,11,10.20
2012,04,21,18,12,10.20
2012,04,21,18,13,10.20
2012,04,21,18,14,10.20
2012,04,21,18,15,10.20
2012,04,21,18,16,10.20
2012,04,21,18,17,10.20
2012,04,21,18,18,10.20
2012,04,21,18,19,10.20
2012,04,21,18,20,10.20
2012,04,21,18,21,10.20
2012,04,21,18,22,10.20
2012,04,21,18,23,10.20
2012,04,21,18,24,10.20
2012,04,21,18,25,10.20
2012,04,21,18,26,10.20
2012,04,21,18,27,10.20
2012,04,21,18,28,10.20
2012,04,21,18,29,10.20
2012,04,21,18,30,10.20
2012,04,21,18,31,10.20
2012,04,21,18,32,10.20
2012,04,21,18,33,10.20
2012,04,21,18,34,10.20
2012,04,21,18,35,10.20
2012,04,21,18,36,10.20
2012,04,21,18,37,10.20
2012,04,21,18,38,10.20
2012,04,21,18,39,10.20
2012,04,21,18,40,10.20
2012,04,21,18,41,10.10
2012,04,21,18,42,10.10
2012,04,21,18,43,10.10
2012,04,21,18,44,10.10
2012,04,21,18,45,10.10
2012,04,21,18,46,10.10
2012,04,21,18,47,10.10
2012,04,21,18,48,10.10
2012,04,21,18,49,10.10
2012,04,21,18,50,10.10
2012,04,21,18,51,10.10
2012,04,21,18,52,10.10
2012,04,21,18,53,10.10
2012,04,21,18,54,10.10
2012,04,21,18,55,10.10
2012,04,21,18,56,10.00
2012,04,21,18,57,10.00
2012,04,21,18,58,10.00
2012,04,21,18,59,10.00
2012,04,21,19,00,10.00
2012,04,21,19,01,10.00